When you browse on this site, cookies collect data to enhance your experience and personalize the content and advertising you see.
Visit our Privacy Policy to learn more. By continuing to use the site, you agree to this use of cookies and data.
  • în România
  • Lista ţărilor
  • Pe 7 zile
  • Temperatura apei
  • Meteo pe hartă
  • Widget-uri
  • user-avatar
    Intrare

    Meteo pe oră la Andora

    Astăzi, 2 Iunie, Marţi

    Timp Temperatura Precipitaţii Vânt Presiune Umiditate
    00:00 +9°C° 0 mm 1 m/s 624 mmHg 88%
    01:00 +8°C° 0 mm 1 m/s 624 mmHg 87%
    02:00 +8°C° 0 mm 1 m/s 623 mmHg 87%
    03:00 +8°C° 0 mm 1 m/s 623 mmHg 86%
    04:00 +9°C° 0 mm 1 m/s 624 mmHg 84%
    05:00 +10°C° 0 mm 1 m/s 624 mmHg 82%
    06:00 +12°C° 0 mm 1 m/s 625 mmHg 83%
    07:00 +13°C° 0 mm 1 m/s 626 mmHg 73%
    08:00 +15°C° 0 mm 1 m/s 626 mmHg 64%
    09:00 +18°C° 0 mm 1 m/s 627 mmHg 54%
    10:00 +19°C° 0.1 mm 1 m/s 627 mmHg 53%
    11:00 +18°C° 0.1 mm 2 m/s 627 mmHg 51%
    12:00 +19°C° 0 mm 2 m/s 627 mmHg 52%
    13:00 +18°C° 0.6 mm 2 m/s 626 mmHg 58%
    14:00 +18°C° 0.6 mm 1 m/s 626 mmHg 64%
    15:00 +16°C° 0.6 mm 1 m/s 625 mmHg 71%
    16:00 +16°C° 0.7 mm 1 m/s 625 mmHg 75%
    17:00 +15°C° 0.7 mm 1 m/s 624 mmHg 80%
    18:00 +13°C° 0.7 mm 0 m/s 624 mmHg 85%
    19:00 +12°C° 0.2 mm 0 m/s 624 mmHg 88%
    20:00 +12°C° 0.2 mm 1 m/s 623 mmHg 91%
    21:00 +10°C° 0.2 mm 1 m/s 623 mmHg 94%
    22:00 +10°C° 0 mm 1 m/s 622 mmHg 94%
    23:00 +10°C° 0 mm 1 m/s 622 mmHg 93%

    Mâine, 3 Iunie, Miercuri

    Timp Temperatura Precipitaţii Vânt Presiune Umiditate
    00:00 +10°C° 0 mm 1 m/s 622 mmHg 92%
    01:00 +9°C° 0 mm 1 m/s 621 mmHg 92%
    02:00 +9°C° 0 mm 1 m/s 621 mmHg 91%
    03:00 +9°C° 0 mm 1 m/s 621 mmHg 90%
    04:00 +10°C° 0 mm 1 m/s 621 mmHg 88%
    05:00 +11°C° 0 mm 1 m/s 621 mmHg 87%
    06:00 +11°C° 0 mm 0 m/s 621 mmHg 85%
    07:00 +13°C° 0.4 mm 1 m/s 622 mmHg 82%
    08:00 +14°C° 0.4 mm 1 m/s 622 mmHg 78%
    09:00 +16°C° 0.4 mm 1 m/s 622 mmHg 75%
    10:00 +16°C° 1.2 mm 1 m/s 622 mmHg 75%
    11:00 +16°C° 1.2 mm 1 m/s 622 mmHg 75%
    12:00 +16°C° 1.2 mm 1 m/s 621 mmHg 75%
    13:00 +15°C° 1.4 mm 1 m/s 620 mmHg 78%
    14:00 +15°C° 1.4 mm 1 m/s 620 mmHg 81%
    15:00 +14°C° 1.4 mm 1 m/s 619 mmHg 84%
    16:00 +14°C° 1 mm 1 m/s 619 mmHg 86%
    17:00 +13°C° 1 mm 1 m/s 619 mmHg 89%
    18:00 +13°C° 1 mm 1 m/s 618 mmHg 91%
    19:00 +12°C° 1.2 mm 1 m/s 618 mmHg 93%
    20:00 +11°C° 1.2 mm 1 m/s 618 mmHg 95%
    21:00 +11°C° 1.2 mm 1 m/s 618 mmHg 97%
    22:00 +11°C° 1.2 mm 1 m/s 618 mmHg 98%
    23:00 +10°C° 1.2 mm 1 m/s 617 mmHg 98%

    Poimâine, 4 Iunie, Joi

    Timp Temperatura Precipitaţii Vânt Presiune Umiditate
    00:00 +10°C° 1.2 mm 1 m/s 617 mmHg 98%
    01:00 +10°C° 2.7 mm 1 m/s 617 mmHg 98%
    02:00 +9°C° 2.7 mm 1 m/s 616 mmHg 98%
    03:00 +9°C° 2.7 mm 1 m/s 616 mmHg 98%
    04:00 +8°C° 2.4 mm 1 m/s 616 mmHg 98%
    05:00 +8°C° 2.4 mm 1 m/s 615 mmHg 97%
    06:00 +6°C° 2.4 mm 2 m/s 615 mmHg 96%
    07:00 +8°C° 0.7 mm 1 m/s 615 mmHg 95%
    08:00 +8°C° 0.7 mm 1 m/s 615 mmHg 94%
    09:00 +9°C° 0.7 mm 1 m/s 616 mmHg 93%
    10:00 +9°C° 0.5 mm 1 m/s 616 mmHg 90%
    11:00 +9°C° 0.5 mm 1 m/s 616 mmHg 87%
    12:00 +8°C° 0.5 mm 2 m/s 616 mmHg 85%
    13:00 +8°C° 1.1 mm 2 m/s 615 mmHg 87%
    14:00 +7°C° 1.1 mm 2 m/s 615 mmHg 88%
    15:00 +7°C° 1.1 mm 2 m/s 615 mmHg 90%
    16:00 +7°C° 0.6 mm 2 m/s 615 mmHg 90%
    17:00 +6°C° 0.6 mm 2 m/s 615 mmHg 90%
    18:00 +6°C° 0.6 mm 2 m/s 615 mmHg 89%
    19:00 +5°C° 0 mm 2 m/s 616 mmHg 90%
    20:00 +5°C° 0 mm 2 m/s 616 mmHg 91%
    21:00 +4°C° 0 mm 2 m/s 616 mmHg 93%
    22:00 +4°C° 0 mm 2 m/s 616 mmHg 93%
    23:00 +4°C° 0 mm 2 m/s 617 mmHg 93%

    5 Iunie, Vineri

    Timp Temperatura Precipitaţii Vânt Presiune Umiditate
    00:00 +4°C° 0 mm 2 m/s 617 mmHg 93%
    01:00 +3°C° 0 mm 2 m/s 617 mmHg 93%
    02:00 +3°C° 0 mm 2 m/s 617 mmHg 93%
    03:00 +3°C° 0 mm 2 m/s 617 mmHg 92%
    04:00 +3°C° 0 mm 2 m/s 617 mmHg 91%
    05:00 +4°C° 0 mm 2 m/s 617 mmHg 89%
    06:00 +4°C° 0 mm 2 m/s 618 mmHg 87%
    07:00 +6°C° 0 mm 2 m/s 619 mmHg 76%
    08:00 +9°C° 0 mm 2 m/s 620 mmHg 66%
    09:00 +12°C° 0 mm 2 m/s 621 mmHg 55%
    10:00 +13°C° 0 mm 2 m/s 621 mmHg 53%
    11:00 +14°C° 0 mm 2 m/s 622 mmHg 50%
    12:00 +16°C° 0 mm 2 m/s 623 mmHg 47%
    13:00 +16°C° 0 mm 2 m/s 622 mmHg 50%
    14:00 +16°C° 0 mm 2 m/s 622 mmHg 54%
    15:00 +15°C° 0 mm 2 m/s 622 mmHg 57%
    16:00 +14°C° 0 mm 2 m/s 622 mmHg 64%
    17:00 +13°C° 0 mm 1 m/s 621 mmHg 71%
    18:00 +12°C° 0 mm 1 m/s 621 mmHg 78%
    19:00 +10°C° 0 mm 1 m/s 621 mmHg 83%
    20:00 +9°C° 0 mm 1 m/s 621 mmHg 88%
    21:00 +7°C° 0 mm 0 m/s 621 mmHg 93%
    22:00 +7°C° 0 mm 0 m/s 620 mmHg 93%
    23:00 +7°C° 0 mm 1 m/s 620 mmHg 94%

    6 Iunie, Sâmbătă

    Timp Temperatura Precipitaţii Vânt Presiune Umiditate
    00:00 +7°C° 0 mm 1 m/s 620 mmHg 94%
    01:00 +7°C° 0 mm 1 m/s 620 mmHg 94%
    02:00 +7°C° 0 mm 1 m/s 620 mmHg 94%
    03:00 +6°C° 0 mm 1 m/s 619 mmHg 93%
    04:00 +7°C° 0 mm 1 m/s 620 mmHg 89%
    05:00 +9°C° 0 mm 1 m/s 621 mmHg 85%
    06:00 +9°C° 0 mm 0 m/s 621 mmHg 81%
    07:00 +12°C° 0 mm 1 m/s 622 mmHg 72%
    08:00 +14°C° 0 mm 1 m/s 622 mmHg 63%
    09:00 +16°C° 0 mm 2 m/s 623 mmHg 54%
    10:00 +16°C° 0.1 mm 2 m/s 623 mmHg 54%
    11:00 +17°C° 0.1 mm 2 m/s 623 mmHg 54%
    12:00 +17°C° 0.1 mm 3 m/s 623 mmHg 54%
    13:00 +17°C° 0.4 mm 3 m/s 622 mmHg 60%
    14:00 +16°C° 0.4 mm 3 m/s 622 mmHg 65%
    15:00 +14°C° 0.4 mm 3 m/s 621 mmHg 71%
    16:00 +15°C° 0.4 mm 2 m/s 621 mmHg 73%
    17:00 +14°C° 0.4 mm 2 m/s 621 mmHg 74%
    18:00 +14°C° 0.4 mm 1 m/s 620 mmHg 76%
    19:00 +13°C° 1.1 mm 1 m/s 620 mmHg 82%
    20:00 +11°C° 1.1 mm 1 m/s 620 mmHg 89%
    21:00 +10°C° 1.1 mm 1 m/s 620 mmHg 95%
    22:00 +10°C° 1.4 mm 1 m/s 619 mmHg 94%
    23:00 +9°C° 1.4 mm 1 m/s 619 mmHg 94%

    7 Iunie, Duminică

    Timp Temperatura Precipitaţii Vânt Presiune Umiditate
    00:00 +9°C° 1.4 mm 1 m/s 619 mmHg 93%
    01:00 +9°C° 0.1 mm 1 m/s 619 mmHg 94%
    02:00 +8°C° 0.1 mm 1 m/s 618 mmHg 94%
    03:00 +8°C° 0.1 mm 1 m/s 618 mmHg 94%
    04:00 +8°C° 0.2 mm 1 m/s 619 mmHg 94%
    05:00 +9°C° 0.2 mm 1 m/s 619 mmHg 93%
    06:00 +9°C° 0.2 mm 1 m/s 620 mmHg 93%
    07:00 +10°C° 0.5 mm 1 m/s 620 mmHg 89%
    08:00 +11°C° 0.5 mm 1 m/s 621 mmHg 85%
    09:00 +10°C° 0.5 mm 2 m/s 622 mmHg 81%
    10:00 +12°C° 0.3 mm 2 m/s 622 mmHg 81%
    11:00 +12°C° 0.3 mm 1 m/s 622 mmHg 81%
    12:00 +12°C° 0.3 mm 1 m/s 622 mmHg 81%
    13:00 +12°C° 0.7 mm 1 m/s 622 mmHg 83%
    14:00 +11°C° 0.7 mm 1 m/s 622 mmHg 85%
    15:00 +11°C° 0.7 mm 1 m/s 622 mmHg 88%
    16:00 +10°C° 0.6 mm 1 m/s 622 mmHg 88%
    17:00 +10°C° 0.6 mm 1 m/s 622 mmHg 89%
    18:00 +10°C° 0.6 mm 1 m/s 622 mmHg 90%
    19:00 +9°C° 0.2 mm 1 m/s 622 mmHg 92%
    20:00 +8°C° 0.2 mm 1 m/s 622 mmHg 95%
    21:00 +7°C° 0.2 mm 1 m/s 622 mmHg 97%
    22:00 +8°C° 0.3 mm 1 m/s 622 mmHg 97%
    23:00 +8°C° 0.3 mm 1 m/s 622 mmHg 97%
    Arată mai mult